Weather History for Crestview, FL

Change the Weather History Date:

Friday, June 28, 2013

  Actual Average Record
Temperature  
Mean Temperature 84 °F -  
Max Temperature 95 °F - - ()
Min Temperature 75 °F - - ()
Cooling Degree Days 20    
Growing Degree Days 34 (Base 50)    
Moisture  
Dew Point 74 °F    
Average Humidity 79    
Maximum Humidity 92    
Minimum Humidity 47    
Precipitation  
Precipitation 0.23 in - - ()
Sea Level Pressure  
Sea Level Pressure 29.85 in    
Wind  
Wind Speed 7 mph (WSW)    
Max Wind Speed 21 mph    
Max Gust Speed 39 mph    
Visibility 9 miles    
Events Rain , Thunderstorm    
T = Trace of Precipitation, MM = Missing Value Source: NWS Daily Summary

Daily Weather History Graph

Daily Weather History Graph

Search for Another Location

Airport:

Trip Planner

Search our weather history database for the weather conditions in past years. The results will help you decide how hot, cold, wet, or windy it might be!

Date:

Astronomy

Jun. 28, 2013 Rise Set
Actual Time 5:46 AM CDT 7:52 PM CDT
Civil Twilight 5:18 AM CDT 8:20 PM CDT
Nautical Twilight 4:44 AM CDT 8:54 PM CDT
Astronomical Twilight 4:08 AM CDT 9:30 PM CDT
Moon 11:49 PM CDT (6/28) 11:27 AM CDT (6/28)
Length of Visible Light 15h 02m
Length of Day
14h 06m
Waning Gibbous, 66% of the Moon is Illuminated
Jun 28
Waning Gibbous
Jun 29
Last Quarter
Jul 8
New
Jul 15
First Quarter
Jul 22
Full

Hourly Weather History & Observations

Time (CDT) Temp. Heat Index Dew Point Humidity Pressure Visibility Wind Dir Wind Speed Gust Speed Precip Events Conditions
12:58 AM 81.3 °F 88.5 °F 76.8 °F 86% 29.92 in 10.0 mi WSW 4.6 mph - N/A   Clear
1:58 AM 80.6 °F 87.1 °F 77.2 °F 89% 29.91 in 10.0 mi WSW 4.6 mph - N/A   Clear
2:58 AM 80.6 °F 87.1 °F 77.2 °F 89% 29.89 in 10.0 mi SSW 5.8 mph - N/A   Clear
3:58 AM 79.9 °F - 77.4 °F 92% 29.90 in 10.0 mi SW 3.5 mph - N/A   Scattered Clouds
4:58 AM 80.2 °F 86.6 °F 77.7 °F 92% 29.89 in 10.0 mi WSW 5.8 mph - N/A   Clear
5:58 AM 81.0 °F 88.6 °F 78.1 °F 91% 29.90 in 10.0 mi West 6.9 mph - N/A   Clear
6:58 AM 82.2 °F 92.2 °F 79.0 °F 90% 29.90 in 10.0 mi West 6.9 mph - N/A   Clear
7:33 AM 82.4 °F 92.4 °F 78.8 °F 89% 29.91 in 10.0 mi West 11.5 mph 17.3 mph N/A   Mostly Cloudy
7:38 AM 84.2 °F 96.1 °F 78.8 °F 84% 29.91 in 10.0 mi WNW 11.5 mph 17.3 mph N/A   Scattered Clouds
7:58 AM 84.0 °F 95.2 °F 78.4 °F 83% 29.91 in 10.0 mi West 10.4 mph - N/A   Partly Cloudy
8:55 AM 87.4 °F 98.2 °F 76.1 °F 69% 29.91 in 10.0 mi WNW 10.4 mph - N/A   Mostly Cloudy
9:55 AM 88.5 °F 97.8 °F 74.7 °F 63% 29.89 in 10.0 mi WNW 8.1 mph - N/A   Mostly Cloudy
10:55 AM 90.9 °F 100.6 °F 74.1 °F 58% 29.90 in 10.0 mi WNW 11.5 mph - N/A   Mostly Cloudy
11:55 AM 91.8 °F 100.3 °F 73.0 °F 54% 29.89 in 10.0 mi West 10.4 mph - N/A   Mostly Cloudy
12:55 PM 90.5 °F 99.2 °F 73.4 °F 57% 29.85 in 10.0 mi SW 9.2 mph - N/A   Mostly Cloudy
1:55 PM 93.9 °F 103.4 °F 73.2 °F 51% 29.82 in 10.0 mi WSW 12.7 mph - N/A   Mostly Cloudy
2:55 PM 94.3 °F 101.6 °F 71.2 °F 47% 29.81 in 10.0 mi West 11.5 mph - N/A   Mostly Cloudy
3:55 PM 83.3 °F 85.9 °F 67.1 °F 58% 29.84 in 10.0 mi North 16.1 mph 39.1 mph N/A Thunderstorm Thunderstorm
4:06 PM 80.6 °F 83.2 °F 68.0 °F 65% 29.85 in 1.0 mi NNW 20.7 mph 31.1 mph N/A Rain , Thunderstorm Heavy Thunderstorms and Rain
4:17 PM 75.2 °F - 68.0 °F 78% 29.84 in 7.0 mi NW 13.8 mph 33.4 mph N/A Rain , Thunderstorm Light Thunderstorms and Rain
4:31 PM 75.2 °F - 68.0 °F 78% 29.82 in 10.0 mi West 3.5 mph 17.3 mph N/A Thunderstorm Thunderstorm
4:55 PM 75.9 °F - 69.6 °F 81% 29.81 in 10.0 mi West 5.8 mph - 0.23 in   Overcast
5:16 PM 75.2 °F - 69.8 °F 83% 29.82 in 7.0 mi West 2.3 mph - N/A Rain Light Rain
5:55 PM 75.7 °F - 70.5 °F 84% 29.81 in 7.0 mi SE 2.3 mph - 0.00 in Rain Light Rain
6:27 PM 75.2 °F - 71.6 °F 89% 29.80 in 10.0 mi SSE 4.6 mph - N/A   Overcast
6:55 PM 75.9 °F - 71.1 °F 85% 29.80 in 10.0 mi SE 3.5 mph - 0.00 in   Overcast
7:55 PM 75.2 °F - 71.2 °F 87% 29.80 in 10.0 mi SSE 5.8 mph - N/A   Overcast
8:55 PM 75.7 °F - 71.4 °F 86% 29.81 in 10.0 mi SSE 3.5 mph - N/A   Overcast
9:55 PM 76.3 °F - 72.1 °F 87% 29.80 in 10.0 mi South 8.1 mph - N/A   Overcast
10:55 PM 76.6 °F - 72.9 °F 88% 29.78 in 10.0 mi South 8.1 mph - N/A   Overcast
11:15 PM 77.0 °F - 73.4 °F 89% 29.80 in 10.0 mi South 6.9 mph - N/A   Overcast
11:55 PM 78.1 °F - 74.8 °F 90% 29.79 in 10.0 mi South 8.1 mph - N/A   Overcast